Time,TemperatureF,DewpointF,PressureIn,WindDirection,WindDirectionDegrees,WindSpeedMPH,WindSpeedGustMPH,Humidity,HourlyPrecipIn,Conditions,Clouds,dailyrainin,SoftwareType,DateUTC
2013-09-11 00:04:00,67.2,28.1,24.83,West,266,7.0,-999.0,23,-99.99,,,-99.99,dwt +perl,2013-09-11 07:04:00,
2013-09-11 00:09:00,67.2,29.2,24.84,West,265,7.0,-999.0,24,-99.99,,,-99.99,dwt +perl,2013-09-11 07:09:00,
2013-09-11 00:14:00,67.2,27.1,24.83,West,264,7.0,-999.0,22,-99.99,,,-99.99,dwt +perl,2013-09-11 07:14:00,
2013-09-11 00:19:00,67.1,27.0,24.83,WSW,249,7.0,-999.0,22,-99.99,,,-99.99,dwt +perl,2013-09-11 07:19:00,
2013-09-11 00:24:00,67.2,27.1,24.83,WSW,253,7.0,-999.0,22,-99.99,,,-99.99,dwt +perl,2013-09-11 07:24:00,
2013-09-11 00:29:00,67.2,25.9,24.83,WSW,238,11.0,-999.0,21,-99.99,,,-99.99,dwt +perl,2013-09-11 07:29:00,
2013-09-11 00:34:00,67.1,24.7,24.83,WSW,240,10.0,-999.0,20,-99.99,,,-99.99,dwt +perl,2013-09-11 07:34:00,
2013-09-11 00:39:00,67.1,28.1,24.83,WSW,242,11.0,-999.0,23,-99.99,,,-99.99,dwt +perl,2013-09-11 07:39:00,
2013-09-11 00:44:00,67.3,26.0,24.83,WSW,246,8.0,-999.0,21,-99.99,,,-99.99,dwt +perl,2013-09-11 07:44:00,
2013-09-11 00:49:00,67.3,23.6,24.83,WSW,249,6.0,-999.0,19,-99.99,,,-99.99,dwt +perl,2013-09-11 07:49:00,
2013-09-11 00:54:00,67.3,23.6,24.83,WSW,239,12.0,-999.0,19,-99.99,,,-99.99,dwt +perl,2013-09-11 07:54:00,
2013-09-11 00:59:00,67.3,21.0,24.83,WSW,237,11.0,-999.0,17,-99.99,,,-99.99,dwt +perl,2013-09-11 07:59:00,
2013-09-11 01:04:00,67.0,20.8,24.84,SW,235,8.0,-999.0,17,-99.99,,,-99.99,dwt +perl,2013-09-11 08:04:00,
2013-09-11 01:09:00,67.1,19.4,24.84,WSW,245,10.0,-999.0,16,-99.99,,,-99.99,dwt +perl,2013-09-11 08:09:00,
2013-09-11 01:14:00,67.4,18.1,24.84,WSW,247,8.0,-999.0,15,-99.99,,,-99.99,dwt +perl,2013-09-11 08:14:00,
2013-09-11 01:24:00,67.7,19.9,24.84,WSW,238,9.0,-999.0,16,-99.99,,,-99.99,dwt +perl,2013-09-11 08:24:00,
2013-09-11 01:29:00,67.6,16.7,24.83,WSW,246,10.0,-999.0,14,-99.99,,,-99.99,dwt +perl,2013-09-11 08:29:00,
2013-09-11 01:34:00,67.8,21.4,24.84,WSW,251,6.0,-999.0,17,-99.99,,,-99.99,dwt +perl,2013-09-11 08:34:00,
2013-09-11 01:39:00,67.8,18.5,24.84,WSW,252,4.0,-999.0,15,-99.99,,,-99.99,dwt +perl,2013-09-11 08:39:00,
2013-09-11 01:44:00,67.6,18.3,24.84,West,266,5.0,-999.0,15,-99.99,,,-99.99,dwt +perl,2013-09-11 08:44:00,
2013-09-11 01:49:00,67.9,21.5,24.83,West,261,5.0,-999.0,17,-99.99,,,-99.99,dwt +perl,2013-09-11 08:49:00,
2013-09-11 01:54:00,67.3,16.5,24.84,West,266,5.0,-999.0,14,-99.99,,,-99.99,dwt +perl,2013-09-11 08:54:00,
2013-09-11 01:59:00,67.5,18.2,24.84,West,269,7.0,-999.0,15,-99.99,,,-99.99,dwt +perl,2013-09-11 08:59:00,
2013-09-11 02:04:00,67.1,12.8,24.84,West,270,8.0,-999.0,12,-99.99,,,-99.99,dwt +perl,2013-09-11 09:04:00,
2013-09-11 02:09:00,67.0,12.7,24.84,WSW,253,6.0,-999.0,12,-99.99,,,-99.99,dwt +perl,2013-09-11 09:09:00,
2013-09-11 02:14:00,67.1,12.8,24.84,WSW,258,9.0,-999.0,12,-99.99,,,-99.99,dwt +perl,2013-09-11 09:14:00,
2013-09-11 02:19:00,67.3,11.0,24.84,WSW,245,11.0,-999.0,11,-99.99,,,-99.99,dwt +perl,2013-09-11 09:19:00,
2013-09-11 02:24:00,67.2,12.9,24.84,WSW,245,9.0,-999.0,12,-99.99,,,-99.99,dwt +perl,2013-09-11 09:24:00,
2013-09-11 02:39:00,67.3,13.0,24.83,WSW,251,7.0,-999.0,12,-99.99,,,-99.99,dwt +perl,2013-09-11 09:39:00,
2013-09-11 02:44:00,67.2,12.9,24.84,WSW,253,7.0,-999.0,12,-99.99,,,-99.99,dwt +perl,2013-09-11 09:44:00,
2013-09-11 02:59:00,66.9,12.6,24.84,WSW,241,9.0,-999.0,12,-99.99,,,-99.99,dwt +perl,2013-09-11 09:59:00,
2013-09-11 03:04:00,67.0,10.8,24.84,WSW,251,7.0,-999.0,11,-99.99,,,-99.99,dwt +perl,2013-09-11 10:04:00,
2013-09-11 03:14:00,66.9,12.6,24.84,WSW,244,9.0,-999.0,12,-99.99,,,-99.99,dwt +perl,2013-09-11 10:14:00,
2013-09-11 03:19:00,66.7,14.3,24.84,WSW,247,8.0,-999.0,13,-99.99,,,-99.99,dwt +perl,2013-09-11 10:19:00,
2013-09-11 03:24:00,66.9,14.5,24.84,West,260,9.0,-999.0,13,-99.99,,,-99.99,dwt +perl,2013-09-11 10:24:00,
2013-09-11 03:29:00,67.0,12.7,24.84,WSW,245,11.0,-999.0,12,-99.99,,,-99.99,dwt +perl,2013-09-11 10:29:00,
2013-09-11 03:34:00,67.1,12.8,24.84,WSW,239,11.0,-999.0,12,-99.99,,,-99.99,dwt +perl,2013-09-11 10:34:00,
2013-09-11 03:44:00,67.0,14.6,24.84,WSW,255,9.0,-999.0,13,-99.99,,,-99.99,dwt +perl,2013-09-11 10:44:00,
2013-09-11 03:49:00,67.1,14.6,24.84,WSW,249,8.0,-999.0,13,-99.99,,,-99.99,dwt +perl,2013-09-11 10:49:00,
2013-09-11 03:54:00,66.7,16.0,24.84,WSW,249,7.0,-999.0,14,-99.99,,,-99.99,dwt +perl,2013-09-11 10:54:00,
2013-09-11 04:04:00,66.6,17.5,24.83,WSW,244,9.0,-999.0,15,-99.99,,,-99.99,dwt +perl,2013-09-11 11:04:00,
2013-09-11 04:09:00,66.7,17.6,24.83,WSW,247,9.0,-999.0,15,-99.99,,,-99.99,dwt +perl,2013-09-11 11:09:00,
2013-09-11 04:19:00,66.7,14.3,24.83,WSW,252,10.0,-999.0,13,-99.99,,,-99.99,dwt +perl,2013-09-11 11:19:00,
2013-09-11 04:24:00,66.6,15.9,24.84,WSW,248,8.0,-999.0,14,-99.99,,,-99.99,dwt +perl,2013-09-11 11:24:00,
2013-09-11 04:29:00,66.1,18.6,24.84,WSW,251,10.0,-999.0,16,-99.99,,,-99.99,dwt +perl,2013-09-11 11:29:00,
2013-09-11 04:34:00,65.9,18.5,24.84,WSW,243,10.0,-999.0,16,-99.99,,,-99.99,dwt +perl,2013-09-11 11:34:00,
2013-09-11 04:49:00,65.8,19.8,24.84,WSW,247,9.0,-999.0,17,-99.99,,,-99.99,dwt +perl,2013-09-11 11:49:00,
2013-09-11 04:54:00,65.7,19.7,24.84,West,268,8.0,-999.0,17,-99.99,,,-99.99,dwt +perl,2013-09-11 11:54:00,
2013-09-11 04:59:00,65.9,17.0,24.84,WSW,253,10.0,-999.0,15,-99.99,,,-99.99,dwt +perl,2013-09-11 11:59:00,
2013-09-11 05:14:00,66.2,15.6,24.84,West,261,9.0,-999.0,14,-99.99,,,-99.99,dwt +perl,2013-09-11 12:14:00,
2013-09-11 05:19:00,66.3,15.7,24.85,WSW,256,9.0,-999.0,14,-99.99,,,-99.99,dwt +perl,2013-09-11 12:19:00,
2013-09-11 05:24:00,66.5,14.1,24.85,West,269,8.0,-999.0,13,-99.99,,,-99.99,dwt +perl,2013-09-11 12:24:00,
2013-09-11 05:29:00,66.9,12.6,24.85,WNW,293,8.0,-999.0,12,-99.99,,,-99.99,dwt +perl,2013-09-11 12:29:00,
2013-09-11 05:44:00,67.1,10.9,24.85,West,264,8.0,-999.0,11,-99.99,,,-99.99,dwt +perl,2013-09-11 12:44:00,
2013-09-11 05:49:00,67.2,12.9,24.85,WNW,286,8.0,-999.0,12,-99.99,,,-99.99,dwt +perl,2013-09-11 12:49:00,
2013-09-11 05:59:00,67.1,12.8,24.85,West,259,9.0,-999.0,12,-99.99,,,-99.99,dwt +perl,2013-09-11 12:59:00,
2013-09-11 06:04:00,67.1,14.6,24.86,West,262,6.0,-999.0,13,-99.99,,,-99.99,dwt +perl,2013-09-11 13:04:00,
2013-09-11 06:09:00,66.7,16.0,24.86,West,272,6.0,-999.0,14,-99.99,,,-99.99,dwt +perl,2013-09-11 13:09:00,
2013-09-11 06:19:00,66.2,17.2,24.86,West,274,6.0,-999.0,15,-99.99,,,-99.99,dwt +perl,2013-09-11 13:19:00,
2013-09-11 06:24:00,66.1,17.1,24.86,West,263,4.0,-999.0,15,-99.99,,,-99.99,dwt +perl,2013-09-11 13:24:00,
2013-09-11 06:29:00,65.9,18.5,24.87,West,264,4.0,-999.0,16,-99.99,,,-99.99,dwt +perl,2013-09-11 13:29:00,
2013-09-11 06:34:00,65.8,18.4,24.87,West,263,5.0,-999.0,16,-99.99,,,-99.99,dwt +perl,2013-09-11 13:34:00,
2013-09-11 06:39:00,65.7,19.7,24.87,West,263,4.0,-999.0,17,-99.99,,,-99.99,dwt +perl,2013-09-11 13:39:00,
2013-09-11 06:44:00,65.6,19.6,24.87,West,264,4.0,-999.0,17,-99.99,,,-99.99,dwt +perl,2013-09-11 13:44:00,
2013-09-11 06:49:00,65.7,19.7,24.87,West,263,7.0,-999.0,17,-99.99,,,-99.99,dwt +perl,2013-09-11 13:49:00,
2013-09-11 06:54:00,66.3,20.2,24.87,West,270,7.0,-999.0,17,-99.99,,,-99.99,dwt +perl,2013-09-11 13:54:00,
2013-09-11 06:59:00,66.8,20.6,24.87,West,270,4.0,-999.0,17,-99.99,,,-99.99,dwt +perl,2013-09-11 13:59:00,
2013-09-11 07:04:00,66.6,20.4,24.87,West,269,5.0,-999.0,17,-99.99,,,-99.99,dwt +perl,2013-09-11 14:04:00,
2013-09-11 07:09:00,67.1,20.8,24.88,WSW,248,8.0,-999.0,17,-99.99,,,-99.99,dwt +perl,2013-09-11 14:09:00,
2013-09-11 07:14:00,67.0,20.8,24.88,WSW,251,6.0,-999.0,17,-99.99,,,-99.99,dwt +perl,2013-09-11 14:14:00,
2013-09-11 07:19:00,67.0,19.3,24.88,WSW,252,6.0,-999.0,16,-99.99,,,-99.99,dwt +perl,2013-09-11 14:19:00,
2013-09-11 07:24:00,66.8,19.2,24.88,WSW,250,11.0,-999.0,16,-99.99,,,-99.99,dwt +perl,2013-09-11 14:24:00,
2013-09-11 07:29:00,66.5,14.1,24.88,WSW,252,8.0,-999.0,13,-99.99,,,-99.99,dwt +perl,2013-09-11 14:29:00,
2013-09-11 07:34:00,66.5,14.1,24.88,WSW,252,5.0,-999.0,13,-99.99,,,-99.99,dwt +perl,2013-09-11 14:34:00,
2013-09-11 07:39:00,66.4,15.8,24.88,WSW,256,7.0,-999.0,14,-99.99,,,-99.99,dwt +perl,2013-09-11 14:39:00,
2013-09-11 07:54:00,66.3,17.3,24.88,West,268,5.0,-999.0,15,-99.99,,,-99.99,dwt +perl,2013-09-11 14:54:00,
2013-09-11 07:59:00,66.1,17.1,24.88,WSW,251,6.0,-999.0,15,-99.99,,,-99.99,dwt +perl,2013-09-11 14:59:00,
2013-09-11 08:14:00,66.4,15.8,24.88,West,266,6.0,-999.0,14,-99.99,,,-99.99,dwt +perl,2013-09-11 15:14:00,
2013-09-11 08:19:00,66.5,17.4,24.89,WSW,253,4.0,-999.0,15,-99.99,,,-99.99,dwt +perl,2013-09-11 15:19:00,
2013-09-11 08:24:00,66.8,17.7,24.89,WSW,255,5.0,-999.0,15,-99.99,,,-99.99,dwt +perl,2013-09-11 15:24:00,
2013-09-11 08:34:00,67.4,18.1,24.89,West,260,5.0,-999.0,15,-99.99,,,-99.99,dwt +perl,2013-09-11 15:34:00,
2013-09-11 08:39:00,67.1,17.9,24.89,West,264,4.0,-999.0,15,-99.99,,,-99.99,dwt +perl,2013-09-11 15:39:00,
2013-09-11 08:44:00,67.7,16.8,24.89,WNW,284,6.0,-999.0,14,-99.99,,,-99.99,dwt +perl,2013-09-11 15:44:00,
2013-09-11 08:59:00,67.9,18.5,24.89,West,268,6.0,-999.0,15,-99.99,,,-99.99,dwt +perl,2013-09-11 15:59:00,
2013-09-11 09:04:00,68.1,20.2,24.89,West,279,4.0,-999.0,16,-99.99,,,-99.99,dwt +perl,2013-09-11 16:04:00,
2013-09-11 09:09:00,68.3,21.8,24.89,West,273,4.0,-999.0,17,-99.99,,,-99.99,dwt +perl,2013-09-11 16:09:00,
2013-09-11 09:14:00,68.7,23.5,24.90,WNW,289,4.0,-999.0,18,-99.99,,,-99.99,dwt +perl,2013-09-11 16:14:00,
2013-09-11 09:19:00,68.6,22.0,24.90,WNW,285,5.0,-999.0,17,-99.99,,,-99.99,dwt +perl,2013-09-11 16:19:00,
2013-09-11 09:24:00,69.1,22.5,24.90,WNW,286,4.0,-999.0,17,-99.99,,,-99.99,dwt +perl,2013-09-11 16:24:00,
2013-09-11 09:29:00,69.2,23.9,24.90,WNW,284,5.0,-999.0,18,-99.99,,,-99.99,dwt +perl,2013-09-11 16:29:00,
2013-09-11 09:34:00,69.4,24.1,24.90,WNW,288,5.0,-999.0,18,-99.99,,,-99.99,dwt +perl,2013-09-11 16:34:00,
2013-09-11 09:49:00,69.7,24.3,24.90,WNW,288,2.0,-999.0,18,-99.99,,,-99.99,dwt +perl,2013-09-11 16:49:00,
2013-09-11 09:54:00,70.1,24.6,24.90,WNW,283,5.0,-999.0,18,-99.99,,,-99.99,dwt +perl,2013-09-11 16:54:00,
2013-09-11 09:59:00,70.7,25.1,24.91,WSW,258,3.0,-999.0,18,-99.99,,,-99.99,dwt +perl,2013-09-11 16:59:00,
2013-09-11 10:14:00,70.6,26.3,24.91,WSW,245,3.0,-999.0,19,-99.99,,,-99.99,dwt +perl,2013-09-11 17:14:00,
2013-09-11 10:19:00,70.7,25.1,24.91,West,278,5.0,-999.0,18,-99.99,,,-99.99,dwt +perl,2013-09-11 17:19:00,
2013-09-11 10:29:00,70.9,27.8,24.90,West,271,6.0,-999.0,20,-99.99,,,-99.99,dwt +perl,2013-09-11 17:29:00,
2013-09-11 10:34:00,70.8,26.5,24.90,West,276,6.0,-999.0,19,-99.99,,,-99.99,dwt +perl,2013-09-11 17:34:00,
2013-09-11 10:39:00,71.3,26.9,24.90,WNW,291,2.0,-999.0,19,-99.99,,,-99.99,dwt +perl,2013-09-11 17:39:00,
2013-09-11 10:44:00,70.9,26.6,24.90,West,270,6.0,-999.0,19,-99.99,,,-99.99,dwt +perl,2013-09-11 17:44:00,
2013-09-11 10:54:00,71.1,25.4,24.91,WSW,252,3.0,-999.0,18,-99.99,,,-99.99,dwt +perl,2013-09-11 17:54:00,
2013-09-11 10:59:00,71.4,27.0,24.91,SW,236,4.0,-999.0,19,-99.99,,,-99.99,dwt +perl,2013-09-11 17:59:00,
2013-09-11 11:04:00,72.4,27.8,24.90,SW,230,1.0,-999.0,19,-99.99,,,-99.99,dwt +perl,2013-09-11 18:04:00,
2013-09-11 11:09:00,73.1,28.4,24.90,SW,219,4.0,-999.0,19,-99.99,,,-99.99,dwt +perl,2013-09-11 18:09:00,
2013-09-11 11:14:00,73.3,28.5,24.90,WSW,255,6.0,-999.0,19,-99.99,,,-99.99,dwt +perl,2013-09-11 18:14:00,
2013-09-11 11:24:00,74.0,30.4,24.90,WNW,291,0.0,-999.0,20,-99.99,,,-99.99,dwt +perl,2013-09-11 18:24:00,
2013-09-11 11:29:00,73.4,29.9,24.90,WNW,295,3.0,-999.0,20,-99.99,,,-99.99,dwt +perl,2013-09-11 18:29:00,
2013-09-11 11:44:00,74.8,31.0,24.90,SW,236,3.0,-999.0,20,-99.99,,,-99.99,dwt +perl,2013-09-11 18:44:00,
2013-09-11 11:49:00,74.9,31.1,24.90,SW,215,0.0,-999.0,20,-99.99,,,-99.99,dwt +perl,2013-09-11 18:49:00,
2013-09-11 11:54:00,75.3,32.7,24.90,SW,217,10.0,-999.0,21,-99.99,,,-99.99,dwt +perl,2013-09-11 18:54:00,
2013-09-11 11:59:00,74.7,33.3,24.90,SW,233,0.0,-999.0,22,-99.99,,,-99.99,dwt +perl,2013-09-11 18:59:00,
2013-09-11 12:04:00,74.6,33.2,24.91,SW,216,2.0,-999.0,22,-99.99,,,-99.99,dwt +perl,2013-09-11 19:04:00,
2013-09-11 12:09:00,74.8,34.5,24.90,WSW,251,3.0,-999.0,23,-99.99,,,-99.99,dwt +perl,2013-09-11 19:09:00,
2013-09-11 12:14:00,74.2,35.1,24.90,West,276,2.0,-999.0,24,-99.99,,,-99.99,dwt +perl,2013-09-11 19:14:00,
2013-09-11 12:19:00,74.8,33.4,24.90,SW,214,4.0,-999.0,22,-99.99,,,-99.99,dwt +perl,2013-09-11 19:19:00,
2013-09-11 12:24:00,74.7,34.4,24.90,South,170,3.0,-999.0,23,-99.99,,,-99.99,dwt +perl,2013-09-11 19:24:00,
2013-09-11 12:29:00,74.9,33.5,24.90,West,280,3.0,-999.0,22,-99.99,,,-99.99,dwt +perl,2013-09-11 19:29:00,
2013-09-11 12:34:00,74.7,36.5,24.90,West,264,5.0,-999.0,25,-99.99,,,-99.99,dwt +perl,2013-09-11 19:34:00,
2013-09-11 12:39:00,75.5,34.0,24.90,SSW,200,2.0,-999.0,22,-99.99,,,-99.99,dwt +perl,2013-09-11 19:39:00,
2013-09-11 12:44:00,75.1,34.8,24.90,West,265,2.0,-999.0,23,-99.99,,,-99.99,dwt +perl,2013-09-11 19:44:00,
2013-09-11 12:49:00,74.9,33.5,24.91,West,262,5.0,-999.0,22,-99.99,,,-99.99,dwt +perl,2013-09-11 19:49:00,
2013-09-11 12:59:00,74.6,40.2,24.90,WNW,284,2.0,-999.0,29,-99.99,,,-99.99,dwt +perl,2013-09-11 19:59:00,
2013-09-11 13:04:00,75.2,35.9,24.90,SW,214,0.0,-999.0,24,-99.99,,,-99.99,dwt +perl,2013-09-11 20:04:00,
2013-09-11 13:09:00,75.3,37.0,24.90,NW,308,5.0,-999.0,25,-99.99,,,-99.99,dwt +perl,2013-09-11 20:09:00,
2013-09-11 13:14:00,75.2,35.9,24.90,WNW,298,3.0,-999.0,24,-99.99,,,-99.99,dwt +perl,2013-09-11 20:14:00,
2013-09-11 13:19:00,75.0,39.7,24.90,WNW,299,0.0,-999.0,28,-99.99,,,-99.99,dwt +perl,2013-09-11 20:19:00,
2013-09-11 13:24:00,75.2,41.6,24.90,West,260,2.0,-999.0,30,-99.99,,,-99.99,dwt +perl,2013-09-11 20:24:00,
2013-09-11 13:34:00,74.7,39.4,24.90,WSW,256,1.0,-999.0,28,-99.99,,,-99.99,dwt +perl,2013-09-11 20:34:00,
2013-09-11 13:39:00,74.9,38.7,24.90,SSW,207,2.0,-999.0,27,-99.99,,,-99.99,dwt +perl,2013-09-11 20:39:00,
2013-09-11 13:44:00,75.5,41.9,24.90,SSW,207,0.0,-999.0,30,-99.99,,,-99.99,dwt +perl,2013-09-11 20:44:00,
2013-09-11 13:49:00,76.1,44.9,24.90,SW,231,1.0,-999.0,33,-99.99,,,-99.99,dwt +perl,2013-09-11 20:49:00,
2013-09-11 13:54:00,76.6,45.3,24.90,SW,226,0.0,-999.0,33,-99.99,,,-99.99,dwt +perl,2013-09-11 20:54:00,
2013-09-11 14:04:00,75.8,43.8,24.89,SW,231,0.0,-999.0,32,-99.99,,,-99.99,dwt +perl,2013-09-11 21:04:00,
2013-09-11 14:09:00,75.9,43.1,24.89,SW,228,1.0,-999.0,31,-99.99,,,-99.99,dwt +perl,2013-09-11 21:09:00,
2013-09-11 14:19:00,75.8,44.6,24.89,SW,226,1.0,-999.0,33,-99.99,,,-99.99,dwt +perl,2013-09-11 21:19:00,
2013-09-11 14:24:00,75.9,42.2,24.89,SW,226,0.0,-999.0,30,-99.99,,,-99.99,dwt +perl,2013-09-11 21:24:00,
2013-09-11 14:29:00,75.8,45.4,24.89,SW,226,1.0,-999.0,34,-99.99,,,-99.99,dwt +perl,2013-09-11 21:29:00,
2013-09-11 14:34:00,75.5,43.6,24.89,SW,226,2.0,-999.0,32,-99.99,,,-99.99,dwt +perl,2013-09-11 21:34:00,
2013-09-11 14:39:00,75.3,45.0,24.89,SW,226,3.0,-999.0,34,-99.99,,,-99.99,dwt +perl,2013-09-11 21:39:00,
2013-09-11 14:44:00,75.2,41.6,24.89,SW,222,3.0,-999.0,30,-99.99,,,-99.99,dwt +perl,2013-09-11 21:44:00,
2013-09-11 14:49:00,73.7,44.3,24.89,SW,226,4.0,-999.0,35,-99.99,,,-99.99,dwt +perl,2013-09-11 21:49:00,
2013-09-11 14:54:00,73.1,46.7,24.89,SW,225,2.0,-999.0,39,-99.99,,,-99.99,dwt +perl,2013-09-11 21:54:00,
2013-09-11 14:59:00,72.2,44.5,24.88,WSW,241,5.0,-999.0,37,-99.99,,,-99.99,dwt +perl,2013-09-11 21:59:00,
2013-09-11 15:04:00,71.6,41.7,24.89,SW,228,5.0,-999.0,34,-99.99,,,-99.99,dwt +perl,2013-09-11 22:04:00,
2013-09-11 15:09:00,72.2,43.0,24.88,SSW,200,5.0,-999.0,35,-99.99,,,-99.99,dwt +perl,2013-09-11 22:09:00,
2013-09-11 15:14:00,73.5,44.9,24.88,WNW,289,0.0,-999.0,36,-99.99,,,-99.99,dwt +perl,2013-09-11 22:14:00,
2013-09-11 15:19:00,74.0,43.8,24.88,SSW,212,7.0,-999.0,34,-99.99,,,-99.99,dwt +perl,2013-09-11 22:19:00,
2013-09-11 15:24:00,72.4,42.4,24.88,SW,224,7.0,-999.0,34,-99.99,,,-99.99,dwt +perl,2013-09-11 22:24:00,
2013-09-11 15:29:00,71.3,43.0,24.88,SW,216,6.0,-999.0,36,-99.99,,,-99.99,dwt +perl,2013-09-11 22:29:00,
2013-09-11 15:34:00,71.1,40.5,24.88,WSW,244,2.0,-999.0,33,-99.99,,,-99.99,dwt +perl,2013-09-11 22:34:00,
2013-09-11 15:39:00,70.8,40.3,24.88,WNW,283,2.0,-999.0,33,-99.99,,,-99.99,dwt +perl,2013-09-11 22:39:00,
2013-09-11 15:44:00,71.0,39.6,24.88,WNW,282,4.0,-999.0,32,-99.99,,,-99.99,dwt +perl,2013-09-11 22:44:00,
2013-09-11 15:49:00,70.5,43.7,24.88,WNW,283,2.0,-999.0,38,-99.99,,,-99.99,dwt +perl,2013-09-11 22:49:00,
2013-09-11 15:54:00,70.5,42.2,24.88,West,280,0.0,-999.0,36,-99.99,,,-99.99,dwt +perl,2013-09-11 22:54:00,
2013-09-11 15:59:00,70.9,42.6,24.87,WSW,240,4.0,-999.0,36,-99.99,,,-99.99,dwt +perl,2013-09-11 22:59:00,
2013-09-11 16:04:00,71.4,45.1,24.87,WSW,245,3.0,-999.0,39,-99.99,,,-99.99,dwt +perl,2013-09-11 23:04:00,
2013-09-11 16:09:00,72.1,45.1,24.87,SW,228,3.0,-999.0,38,-99.99,,,-99.99,dwt +perl,2013-09-11 23:09:00,
2013-09-11 16:14:00,72.7,41.9,24.88,SW,233,7.0,-999.0,33,-99.99,,,-99.99,dwt +perl,2013-09-11 23:14:00,
2013-09-11 16:19:00,72.6,43.4,24.87,WSW,246,4.0,-999.0,35,-99.99,,,-99.99,dwt +perl,2013-09-11 23:19:00,
2013-09-11 16:24:00,73.4,42.5,24.87,South,186,6.0,-999.0,33,-99.99,,,-99.99,dwt +perl,2013-09-11 23:24:00,
2013-09-11 16:29:00,73.1,39.8,24.87,SSW,206,10.0,-999.0,30,-99.99,,,-99.99,dwt +perl,2013-09-11 23:29:00,
2013-09-11 16:39:00,72.6,40.2,24.87,SW,216,7.0,-999.0,31,-99.99,,,-99.99,dwt +perl,2013-09-11 23:39:00,
2013-09-11 16:44:00,72.2,40.7,24.87,SW,230,2.0,-999.0,32,-99.99,,,-99.99,dwt +perl,2013-09-11 23:44:00,
2013-09-11 16:49:00,72.8,40.4,24.87,SSW,209,2.0,-999.0,31,-99.99,,,-99.99,dwt +perl,2013-09-11 23:49:00,
2013-09-11 16:54:00,71.8,40.3,24.87,West,281,3.0,-999.0,32,-99.99,,,-99.99,dwt +perl,2013-09-11 23:54:00,
2013-09-11 16:59:00,70.8,45.3,24.87,West,270,0.0,-999.0,40,-99.99,,,-99.99,dwt +perl,2013-09-11 23:59:00,
2013-09-11 17:04:00,70.1,47.2,24.87,West,270,2.0,-999.0,44,-99.99,,,-99.99,dwt +perl,2013-09-12 00:04:00,
2013-09-11 17:09:00,69.8,44.4,24.87,West,264,1.0,-999.0,40,-99.99,,,-99.99,dwt +perl,2013-09-12 00:09:00,
2013-09-11 17:14:00,69.7,44.9,24.87,West,264,2.0,-999.0,41,-99.99,,,-99.99,dwt +perl,2013-09-12 00:14:00,
2013-09-11 17:19:00,69.0,46.8,24.87,WSW,245,2.0,-999.0,45,-99.99,,,-99.99,dwt +perl,2013-09-12 00:19:00,
2013-09-11 17:24:00,68.3,45.5,24.87,WSW,256,5.0,-999.0,44,-99.99,,,-99.99,dwt +perl,2013-09-12 00:24:00,
2013-09-11 17:29:00,68.2,43.6,24.87,WSW,241,4.0,-999.0,41,-99.99,,,-99.99,dwt +perl,2013-09-12 00:29:00,
2013-09-11 17:34:00,68.9,44.8,24.87,SW,236,8.0,-999.0,42,-99.99,,,-99.99,dwt +perl,2013-09-12 00:34:00,
2013-09-11 17:39:00,69.2,45.7,24.88,SSW,212,4.0,-999.0,43,-99.99,,,-99.99,dwt +perl,2013-09-12 00:39:00,
2013-09-11 17:44:00,68.7,46.5,24.87,WSW,246,4.0,-999.0,45,-99.99,,,-99.99,dwt +perl,2013-09-12 00:44:00,
2013-09-11 17:49:00,68.8,47.2,24.87,SW,226,8.0,-999.0,46,-99.99,,,-99.99,dwt +perl,2013-09-12 00:49:00,
2013-09-11 17:54:00,68.9,45.5,24.88,SW,222,5.0,-999.0,43,-99.99,,,-99.99,dwt +perl,2013-09-12 00:54:00,
2013-09-11 17:59:00,69.3,46.4,24.88,South,179,5.0,-999.0,44,-99.99,,,-99.99,dwt +perl,2013-09-12 00:59:00,
2013-09-11 18:04:00,69.8,45.0,24.88,WSW,237,3.0,-999.0,41,-99.99,,,-99.99,dwt +perl,2013-09-12 01:04:00,
2013-09-11 18:09:00,70.2,45.4,24.87,SW,235,2.0,-999.0,41,-99.99,,,-99.99,dwt +perl,2013-09-12 01:09:00,
2013-09-11 18:14:00,70.9,44.7,24.87,WSW,245,6.0,-999.0,39,-99.99,,,-99.99,dwt +perl,2013-09-12 01:14:00,
2013-09-11 18:19:00,70.4,39.9,24.87,West,274,4.0,-999.0,33,-99.99,,,-99.99,dwt +perl,2013-09-12 01:19:00,
2013-09-11 18:24:00,70.1,43.3,24.87,WNW,290,4.0,-999.0,38,-99.99,,,-99.99,dwt +perl,2013-09-12 01:24:00,
2013-09-11 18:29:00,70.1,44.6,24.87,West,275,4.0,-999.0,40,-99.99,,,-99.99,dwt +perl,2013-09-12 01:29:00,
2013-09-11 18:34:00,69.9,45.8,24.87,West,265,4.0,-999.0,42,-99.99,,,-99.99,dwt +perl,2013-09-12 01:34:00,
2013-09-11 18:39:00,69.2,41.1,24.87,West,265,3.0,-999.0,36,-99.99,,,-99.99,dwt +perl,2013-09-12 01:39:00,
2013-09-11 18:44:00,68.5,41.9,24.87,West,265,3.0,-999.0,38,-99.99,,,-99.99,dwt +perl,2013-09-12 01:44:00,
2013-09-11 18:49:00,67.7,41.8,24.87,West,265,3.0,-999.0,39,-99.99,,,-99.99,dwt +perl,2013-09-12 01:49:00,
2013-09-11 18:54:00,67.6,41.1,24.88,West,265,1.0,-999.0,38,-99.99,,,-99.99,dwt +perl,2013-09-12 01:54:00,
2013-09-11 18:59:00,67.7,41.2,24.87,West,265,2.0,-999.0,38,-99.99,,,-99.99,dwt +perl,2013-09-12 01:59:00,
2013-09-11 19:04:00,67.8,37.6,24.87,West,265,2.0,-999.0,33,-99.99,,,-99.99,dwt +perl,2013-09-12 02:04:00,
2013-09-11 19:09:00,67.8,36.9,24.87,West,272,5.0,-999.0,32,-99.99,,,-99.99,dwt +perl,2013-09-12 02:09:00,
2013-09-11 19:14:00,67.8,35.2,24.87,WNW,292,3.0,-999.0,30,-99.99,,,-99.99,dwt +perl,2013-09-12 02:14:00,
2013-09-11 19:19:00,67.6,34.2,24.87,WNW,293,5.0,-999.0,29,-99.99,,,-99.99,dwt +perl,2013-09-12 02:19:00,
2013-09-11 19:24:00,67.4,34.0,24.87,WNW,293,5.0,-999.0,29,-99.99,,,-99.99,dwt +perl,2013-09-12 02:24:00,
2013-09-11 19:29:00,67.2,33.0,24.87,WNW,289,4.0,-999.0,28,-99.99,,,-99.99,dwt +perl,2013-09-12 02:29:00,
2013-09-11 19:34:00,67.0,34.5,24.88,WNW,288,4.0,-999.0,30,-99.99,,,-99.99,dwt +perl,2013-09-12 02:34:00,
2013-09-11 19:39:00,66.8,34.4,24.88,WNW,291,4.0,-999.0,30,-99.99,,,-99.99,dwt +perl,2013-09-12 02:39:00,
2013-09-11 19:44:00,66.8,34.4,24.88,WNW,293,5.0,-999.0,30,-99.99,,,-99.99,dwt +perl,2013-09-12 02:44:00,
2013-09-11 19:49:00,66.7,34.3,24.88,WNW,293,5.0,-999.0,30,-99.99,,,-99.99,dwt +perl,2013-09-12 02:49:00,
2013-09-11 19:54:00,66.9,32.7,24.88,WNW,295,6.0,-999.0,28,-99.99,,,-99.99,dwt +perl,2013-09-12 02:54:00,
2013-09-11 19:59:00,67.4,33.2,24.88,WNW,298,4.0,-999.0,28,-99.99,,,-99.99,dwt +perl,2013-09-12 02:59:00,
2013-09-11 20:04:00,67.2,33.0,24.88,NW,304,7.0,-999.0,28,-99.99,,,-99.99,dwt +perl,2013-09-12 03:04:00,
2013-09-11 20:09:00,67.2,33.0,24.88,NW,305,5.0,-999.0,28,-99.99,,,-99.99,dwt +perl,2013-09-12 03:09:00,
2013-09-11 20:14:00,67.2,33.0,24.88,WNW,298,6.0,-999.0,28,-99.99,,,-99.99,dwt +perl,2013-09-12 03:14:00,
2013-09-11 20:19:00,67.1,33.8,24.88,WNW,299,4.0,-999.0,29,-99.99,,,-99.99,dwt +perl,2013-09-12 03:19:00,
2013-09-11 20:24:00,66.8,34.4,24.89,WNW,295,6.0,-999.0,30,-99.99,,,-99.99,dwt +perl,2013-09-12 03:24:00,
2013-09-11 20:29:00,66.7,34.3,24.89,WNW,295,6.0,-999.0,30,-99.99,,,-99.99,dwt +perl,2013-09-12 03:29:00,
2013-09-11 20:34:00,66.6,35.0,24.89,WNW,295,5.0,-999.0,31,-99.99,,,-99.99,dwt +perl,2013-09-12 03:34:00,
2013-09-11 20:39:00,66.8,32.6,24.89,WNW,295,6.0,-999.0,28,-99.99,,,-99.99,dwt +perl,2013-09-12 03:39:00,
2013-09-11 20:44:00,67.5,33.2,24.89,NW,310,6.0,-999.0,28,-99.99,,,-99.99,dwt +perl,2013-09-12 03:44:00,
2013-09-11 20:49:00,67.6,32.4,24.89,NW,318,6.0,-999.0,27,-99.99,,,-99.99,dwt +perl,2013-09-12 03:49:00,
2013-09-11 20:54:00,67.3,32.2,24.89,NW,319,5.0,-999.0,27,-99.99,,,-99.99,dwt +perl,2013-09-12 03:54:00,
2013-09-11 20:59:00,67.1,33.8,24.89,NW,307,6.0,-999.0,29,-99.99,,,-99.99,dwt +perl,2013-09-12 03:59:00,
2013-09-11 21:04:00,66.1,36.2,24.89,WNW,295,6.0,-999.0,33,-99.99,,,-99.99,dwt +perl,2013-09-12 04:04:00,
2013-09-11 21:09:00,65.9,36.7,24.89,WNW,283,4.0,-999.0,34,-99.99,,,-99.99,dwt +perl,2013-09-12 04:09:00,
2013-09-11 21:14:00,65.8,37.4,24.89,WNW,283,4.0,-999.0,35,-99.99,,,-99.99,dwt +perl,2013-09-12 04:14:00,
2013-09-11 21:19:00,65.8,36.6,24.89,WNW,289,7.0,-999.0,34,-99.99,,,-99.99,dwt +perl,2013-09-12 04:19:00,
2013-09-11 21:24:00,66.0,36.1,24.89,WNW,299,7.0,-999.0,33,-99.99,,,-99.99,dwt +perl,2013-09-12 04:24:00,
2013-09-11 21:29:00,66.2,35.5,24.89,WNW,287,6.0,-999.0,32,-99.99,,,-99.99,dwt +perl,2013-09-12 04:29:00,
2013-09-11 21:34:00,66.2,36.2,24.89,WNW,291,7.0,-999.0,33,-99.99,,,-99.99,dwt +perl,2013-09-12 04:34:00,
2013-09-11 21:39:00,66.0,35.3,24.89,WNW,287,7.0,-999.0,32,-99.99,,,-99.99,dwt +perl,2013-09-12 04:39:00,
2013-09-11 21:44:00,66.1,34.6,24.89,WNW,290,6.0,-999.0,31,-99.99,,,-99.99,dwt +perl,2013-09-12 04:44:00,
2013-09-11 21:49:00,66.9,33.6,24.89,WNW,301,10.0,-999.0,29,-99.99,,,-99.99,dwt +perl,2013-09-12 04:49:00,
2013-09-11 21:54:00,67.3,34.0,24.89,WNW,302,11.0,-999.0,29,-99.99,,,-99.99,dwt +perl,2013-09-12 04:54:00,
2013-09-11 21:59:00,67.4,33.2,24.89,WNW,289,6.0,-999.0,28,-99.99,,,-99.99,dwt +perl,2013-09-12 04:59:00,
2013-09-11 22:04:00,67.3,33.1,24.89,WNW,294,9.0,-999.0,28,-99.99,,,-99.99,dwt +perl,2013-09-12 05:04:00,
2013-09-11 22:09:00,67.1,33.8,24.89,WNW,289,9.0,-999.0,29,-99.99,,,-99.99,dwt +perl,2013-09-12 05:09:00,
2013-09-11 22:14:00,66.8,34.4,24.89,WNW,288,7.0,-999.0,30,-99.99,,,-99.99,dwt +perl,2013-09-12 05:14:00,
2013-09-11 22:19:00,66.6,34.2,24.89,WNW,291,9.0,-999.0,30,-99.99,,,-99.99,dwt +perl,2013-09-12 05:19:00,
2013-09-11 22:24:00,66.6,35.0,24.89,WNW,292,7.0,-999.0,31,-99.99,,,-99.99,dwt +perl,2013-09-12 05:24:00,
2013-09-11 22:29:00,66.6,34.2,24.89,WNW,285,7.0,-999.0,30,-99.99,,,-99.99,dwt +perl,2013-09-12 05:29:00,
2013-09-11 22:34:00,66.9,36.1,24.89,WNW,300,10.0,-999.0,32,-99.99,,,-99.99,dwt +perl,2013-09-12 05:34:00,
2013-09-11 22:39:00,67.0,35.4,24.89,WNW,295,8.0,-999.0,31,-99.99,,,-99.99,dwt +perl,2013-09-12 05:39:00,
2013-09-11 22:44:00,66.9,36.8,24.89,West,277,9.0,-999.0,33,-99.99,,,-99.99,dwt +perl,2013-09-12 05:44:00,
2013-09-11 22:49:00,66.6,36.6,24.89,WNW,284,9.0,-999.0,33,-99.99,,,-99.99,dwt +perl,2013-09-12 05:49:00,
2013-09-11 22:54:00,66.3,37.1,24.89,West,277,8.0,-999.0,34,-99.99,,,-99.99,dwt +perl,2013-09-12 05:54:00,
2013-09-11 22:59:00,65.8,36.6,24.89,West,268,6.0,-999.0,34,-99.99,,,-99.99,dwt +perl,2013-09-12 05:59:00,
2013-09-11 23:04:00,65.4,36.3,24.89,WNW,283,7.0,-999.0,34,-99.99,,,-99.99,dwt +perl,2013-09-12 06:04:00,
2013-09-11 23:09:00,65.5,36.4,24.89,West,278,6.0,-999.0,34,-99.99,,,-99.99,dwt +perl,2013-09-12 06:09:00,
2013-09-11 23:14:00,65.9,37.5,24.89,NW,309,8.0,-999.0,35,-99.99,,,-99.99,dwt +perl,2013-09-12 06:14:00,
2013-09-11 23:19:00,66.1,36.9,24.89,West,280,8.0,-999.0,34,-99.99,,,-99.99,dwt +perl,2013-09-12 06:19:00,
2013-09-11 23:24:00,66.2,36.2,24.89,NW,307,10.0,-999.0,33,-99.99,,,-99.99,dwt +perl,2013-09-12 06:24:00,
2013-09-11 23:29:00,66.2,37.0,24.89,WNW,291,7.0,-999.0,34,-99.99,,,-99.99,dwt +perl,2013-09-12 06:29:00,
2013-09-11 23:34:00,66.0,37.6,24.89,WNW,295,9.0,-999.0,35,-99.99,,,-99.99,dwt +perl,2013-09-12 06:34:00,
2013-09-11 23:39:00,65.7,37.3,24.89,West,276,9.0,-999.0,35,-99.99,,,-99.99,dwt +perl,2013-09-12 06:39:00,
2013-09-11 23:44:00,65.5,37.1,24.89,WNW,284,9.0,-999.0,35,-99.99,,,-99.99,dwt +perl,2013-09-12 06:44:00,
2013-09-11 23:49:00,65.6,35.7,24.89,West,277,10.0,-999.0,33,-99.99,,,-99.99,dwt +perl,2013-09-12 06:49:00,
2013-09-11 23:54:00,65.6,36.5,24.89,WNW,287,12.0,-999.0,34,-99.99,,,-99.99,dwt +perl,2013-09-12 06:54:00,
2013-09-11 23:59:00,65.6,34.9,24.89,West,274,9.0,-999.0,32,-99.99,,,-99.99,dwt +perl,2013-09-12 06:59:00,